Duluth, MN

12:40 AM CDT on April 25, 2017 (GMT -0500)
Duluth International

Weather History for KDLH - January, 2012

Change the Weather History Date:

Thursday, January 5, 2012

  Actual Average Record
Temperature  
Mean Temperature 35 °F 10 °F  
Max Temperature 48 °F 19 °F 48 °F (2012)
Min Temperature 21 °F 2 °F -32 °F (1912)
Degree Days  
Heating Degree Days 30 55  
Month to date heating degree days 225 272  
Since 1 July heating degree days 3361 4041  
Cooling Degree Days 0 0  
Month to date cooling degree days 0 0  
Year to date cooling degree days 0 0  
Moisture  
Dew Point 25 °F    
Average Humidity 65    
Maximum Humidity 88    
Minimum Humidity 42    
Precipitation  
Precipitation 0.00 in 0.03 in 0.71 in (1946)
Month to date precipitation T 0.18  
Year to date precipitation T 0.18  
Snow  
Snow 0.00 in 0.70 in 6.20 in (1910)
Month to date snowfall 0.1 3.4  
Since 1 July snowfall 11.9 37.2  
Snow Depth 2.00 in    
Sea Level Pressure  
Sea Level Pressure 29.65 in    
Wind  
Wind Speed 11 mph (WSW)    
Max Wind Speed 24 mph    
Max Gust Speed 31 mph    
Visibility 10 miles    
Events      
T = Trace of Precipitation, MM = Missing Value Source: NWS Daily Summary

Daily Weather History Graph

Daily Weather History Graph

Search for Another Location

Airport or City:

Trip Planner

Search our weather history database for the weather conditions in past years. The results will help you decide how hot, cold, wet, or windy it might be!

Date:

Astronomy

Jan. 05, 2012 Rise Set
Actual Time 7:53 AM CST 4:34 PM CST
Civil Twilight 7:18 AM CST 5:09 PM CST
Nautical Twilight 6:40 AM CST 5:47 PM CST
Astronomical Twilight 6:03 AM CST 6:24 PM CST
Moon 1:38 PM CST (1/5) 4:39 AM CST (1/5)
Length of Visible Light 9h 50m
Length of Day
8h 40m
Waxing Gibbous, 88% of the Moon is Illuminated
Jan 5
Waxing Gibbous
Jan 9
Full
Jan 16
Last Quarter
Jan 23
New
Jan 30
First Quarter

Hourly Weather History & Observations

Time (CST) Temp. Windchill Dew Point Humidity Pressure Visibility Wind Dir Wind Speed Gust Speed Precip Events Conditions
12:55 AM 27.0 °F 21.6 °F 19.9 °F 75% 29.93 in 10.0 mi West 4.6 mph - N/A   Clear
1:55 AM 28.0 °F - 21.0 °F 75% 29.89 in 10.0 mi Calm Calm - N/A   Clear
2:55 AM 28.9 °F - 21.9 °F 75% 29.89 in 10.0 mi Calm Calm - N/A   Mostly Cloudy
3:55 AM 25.0 °F - 21.0 °F 85% 29.87 in 10.0 mi Calm Calm - N/A   Scattered Clouds
4:55 AM 24.1 °F - 19.9 °F 84% 29.86 in 10.0 mi Calm Calm - N/A   Clear
5:55 AM 25.0 °F 20.7 °F 19.9 °F 81% 29.86 in 10.0 mi ESE 3.5 mph - N/A   Clear
6:55 AM 23.0 °F 14.7 °F 19.0 °F 85% 29.79 in 10.0 mi South 6.9 mph - N/A   Clear
7:55 AM 23.0 °F 17.0 °F 19.9 °F 88% 29.78 in 7.0 mi SSW 4.6 mph - N/A   Partly Cloudy
8:55 AM 26.1 °F 15.6 °F 21.9 °F 84% 29.76 in 7.0 mi SW 11.5 mph - N/A   Partly Cloudy
9:55 AM 28.9 °F 20.4 °F 24.1 °F 82% 29.72 in 10.0 mi SW 9.2 mph - N/A   Partly Cloudy
10:55 AM 34.0 °F 25.0 °F 26.1 °F 73% 29.65 in 10.0 mi SSW 12.7 mph - N/A   Partly Cloudy
11:55 AM 36.0 °F 28.0 °F 27.0 °F 70% 29.61 in 10.0 mi WSW 11.5 mph - N/A   Partly Cloudy
12:55 PM 37.9 °F 30.9 °F 27.0 °F 65% 29.57 in 10.0 mi WSW 10.4 mph - N/A   Partly Cloudy
1:55 PM 43.0 °F 37.2 °F 28.0 °F 56% 29.53 in 10.0 mi WSW 10.4 mph - N/A   Clear
2:55 PM 44.1 °F 37.4 °F 27.0 °F 51% 29.51 in 10.0 mi West 13.8 mph - N/A   Clear
3:55 PM 46.9 °F - 27.0 °F 46% 29.48 in 10.0 mi West 17.3 mph - N/A   Partly Cloudy
4:55 PM 46.9 °F - 27.0 °F 46% 29.48 in 10.0 mi West 17.3 mph - N/A   Clear
5:55 PM 48.0 °F - 27.0 °F 44% 29.48 in 10.0 mi WSW 20.7 mph 29.9 mph N/A   Clear
6:55 PM 46.9 °F - 27.0 °F 46% 29.47 in 10.0 mi West 18.4 mph - N/A   Clear
7:55 PM 44.1 °F 36.8 °F 28.9 °F 55% 29.48 in 10.0 mi West 16.1 mph - N/A   Clear
8:55 PM 43.0 °F 35.7 °F 28.9 °F 58% 29.48 in 10.0 mi West 15.0 mph - N/A   Clear
9:55 PM 45.0 °F 37.1 °F 30.0 °F 56% 29.48 in 10.0 mi West 19.6 mph 25.3 mph N/A   Clear
10:55 PM 45.0 °F 37.9 °F 30.0 °F 56% 29.47 in 10.0 mi West 16.1 mph - N/A   Clear
11:55 PM 45.0 °F 37.1 °F 30.0 °F 56% 29.47 in 10.0 mi West 19.6 mph 26.5 mph N/A   Clear